Content
SEND FEEDBACK

Daily
Averages
Monthly
Summary
United States of America

BLACKSBURG, VIRGINIA


Home > North America > United States > Virginia
Elevation: 2070 feet     Latitude: 37 11N     Longitude: 080 25W

WEATHER
 
SELECT A DAY
Number of Records: 450,505;   Date Range: 1/1/95 - 11/25/14
 
SHARE

PRINT THIS DATA

[ ← Previous Day ]
WEATHER ALMANAC - JANUARY 31, 2013
[ Next Day → ]
[ °C ]   °F
Weather ElementAverageHighLow
Temperature34.5 °F46.4 °F (12:35 am)30.2 °F (5:55 pm)
Dewpoint26.7 °F44.6 °F (12:35 am)21.2 °F (8:58 am)
Humidity73.8 %100 % (3:35 am)56 % (12:18 pm)
Barometer29.75 in29.89 in (6:15 pm)29.44 in (1:17 am)
Wind Speed12.7 mph19.6 mph (11:57 am)
Wind Gust33.4 mph (12:18 pm)
Weather ElementAverage
Visibility9.4 mi
Wind DirectionW (274.7 °)

Weather ElementTotal
Precipitation0.04 in
Heating Degree Days26.7 (Base 65)
Averaged from 57 records on January 31, 2013
WEATHER CONDITIONS BREAKOUT
WIND DIRECTION BREAKOUT
WEATHER BY HOUR - JANUARY 31, 2013
[ °C ]   °F
Local TimeTemperatureDewpointHumidityBarometerVisibilityWind DirectionWind SpeedGust SpeedPrecipitationEventsConditions
12:35 AM46.4 °F44.6 °F93 %29.45 in10.0 miWSW (250°)12.7 mph23.0 mph0.01 inRainLight Rain
12:57 AM46.4 °F44.6 °F93 %29.45 in10.0 miSW (230°)9.2 mph20.7 mphRainLight Rain
1:17 AM46.4 °F42.8 °F87 %29.44 in10.0 miWSW (240°)11.5 mph19.6 mphMostly Cloudy
1:55 AM42.8 °F39.2 °F87 %29.48 in10.0 miWNW (290°)15.0 mph24.2 mph0.01 inRainLight Rain
2:15 AM41.0 °F39.2 °F93 %29.48 in10.0 miWest (270°)9.2 mph17.3 mphOvercast
2:35 AM41.0 °F39.2 °F93 %29.48 in10.0 miWest (270°)16.1 mph21.9 mphOvercast
2:58 AM41.0 °F37.4 °F87 %29.49 in10.0 miWest (280°)11.5 mph20.7 mphOvercast
3:15 AM41.0 °F37.4 °F87 %29.50 in10.0 miWNW (290°)16.1 mph31.1 mphLight Drizzle
3:35 AM37.4 °F37.4 °F100 %29.53 in7.0 miWNW (290°)17.3 mph25.3 mph0.01 inRainRain
3:55 AM37.4 °F37.4 °F100 %29.54 in7.0 miWNW (290°)12.7 mph24.2 mph0.01 inRainRain
4:17 AM35.6 °F35.6 °F100 %29.56 in4.0 miWNW (290°)16.1 mph28.8 mphSnowLight Snow
4:37 AM35.6 °F33.8 °F93 %29.58 in10.0 miWNW (290°)18.4 mph28.8 mphOvercast
4:57 AM35.6 °F32.0 °F87 %29.60 in5.0 miWest (280°)17.3 mph29.9 mphSnowLight Snow
5:35 AM35.6 °F28.4 °F75 %29.63 in10.0 miWest (280°)11.5 mph24.2 mphOvercast
5:55 AM33.8 °F30.2 °F87 %29.64 in7.0 miWest (280°)11.5 mph18.4 mphSnowLight Snow
6:35 AM32.0 °F30.2 °F93 %29.66 in2.0 miWNW (290°)15.0 mph25.3 mphSnowLight Snow
7:55 AM32.0 °F26.6 °F80 %29.70 in10.0 miWest (280°)12.7 mph19.6 mphSnowLight Snow
8:18 AM32.0 °F24.8 °F75 %29.71 in10.0 miWest (280°)10.4 mph29.9 mphOvercast
8:38 AM32.0 °F23.0 °F69 %29.74 in10.0 miWNW (290°)18.4 mph25.3 mphOvercast
8:58 AM32.0 °F21.2 °F64 %29.76 in10.0 miWest (280°)17.3 mph29.9 mphOvercast
9:17 AM33.8 °F23.0 °F65 %29.76 in10.0 miWest (280°)12.7 mph20.7 mphOvercast
9:35 AM32.0 °F24.8 °F75 %29.77 in10.0 miWest (280°)12.7 mph31.1 mphOvercast
9:57 AM33.8 °F26.6 °F75 %29.77 in5.0 miWest (260°)13.8 mph24.2 mphSnowLight Snow
10:37 AM33.8 °F23.0 °F65 %29.80 in10.0 miWest (260°)18.4 mph27.6 mphOvercast
11:17 AM35.6 °F24.8 °F65 %29.82 in10.0 miWest (260°)11.5 mph31.1 mphOvercast
11:35 AM33.8 °F21.2 °F60 %29.82 in10.0 miWest (280°)12.7 mph29.9 mphOvercast
11:57 AM33.8 °F21.2 °F60 %29.81 in10.0 miWNW (290°)19.6 mph27.6 mphMostly Cloudy
12:18 PM35.6 °F21.2 °F56 %29.80 in10.0 miWest (280°)19.6 mph33.4 mphMostly Cloudy
12:38 PM35.6 °F21.2 °F56 %29.80 in10.0 miWest (280°)16.1 mph27.6 mphOvercast
12:55 PM33.8 °F23.0 °F65 %29.80 in10.0 miWNW (300°)15.0 mph26.5 mphOvercast
1:17 PM33.8 °F23.0 °F65 %29.81 in10.0 miWest (280°)12.7 mph25.3 mphOvercast
1:35 PM33.8 °F23.0 °F65 %29.81 in10.0 miWest (280°)15.0 mph27.6 mphOvercast
1:57 PM33.8 °F24.8 °F70 %29.83 in10.0 miWest (280°)16.1 mph25.3 mphOvercast
2:35 PM33.8 °F21.2 °F60 %29.83 in10.0 miWest (270°)13.8 mph27.6 mphOvercast
3:15 PM33.8 °F21.2 °F60 %29.84 in10.0 miWest (260°)11.5 mph20.7 mphOvercast
3:38 PM33.8 °F21.2 °F60 %29.85 in10.0 miWest (280°)12.7 mph28.8 mphOvercast
3:55 PM33.8 °F21.2 °F60 %29.85 in10.0 miWest (260°)18.4 mph28.8 mphOvercast
4:15 PM33.8 °F23.0 °F65 %29.86 in10.0 miWest (260°)16.1 mph25.3 mphOvercast
4:35 PM33.8 °F23.0 °F65 %29.86 in10.0 miWest (270°)15.0 mph26.5 mphSnowLight Snow
4:55 PM32.0 °F21.2 °F64 %29.87 in10.0 miWest (280°)13.8 mph24.2 mphSnowLight Snow
5:19 PM32.0 °F23.0 °F69 %29.87 in10.0 miWNW (290°)9.2 mph20.7 mphOvercast
5:39 PM32.0 °F23.0 °F69 %29.87 in10.0 miWNW (290°)8.1 mph17.3 mphScattered Clouds
5:55 PM30.2 °F21.2 °F69 %29.88 in10.0 miWNW (290°)9.2 mphScattered Clouds
6:15 PM30.2 °F21.2 °F69 %29.89 in10.0 miWest (280°)12.7 mph23.0 mphScattered Clouds
6:37 PM30.2 °F21.2 °F69 %29.89 in10.0 miWNW (290°)9.2 mph24.2 mphMostly Cloudy
6:57 PM30.2 °F21.2 °F69 %29.88 in10.0 miWest (280°)12.7 mph21.9 mphScattered Clouds
7:37 PM30.2 °F21.2 °F69 %29.89 in10.0 miWest (280°)10.4 mph17.3 mphScattered Clouds
7:55 PM30.2 °F21.2 °F69 %29.89 in10.0 miWNW (290°)9.2 mph17.3 mphClear
8:17 PM30.2 °F21.2 °F69 %29.89 in10.0 miWest (280°)9.2 mphClear
8:37 PM30.2 °F23.0 °F75 %29.88 in10.0 miWest (280°)6.9 mph20.7 mphClear
9:17 PM30.2 °F23.0 °F75 %29.88 in10.0 miWest (260°)10.4 mph16.1 mphClear
9:35 PM32.0 °F23.0 °F69 %29.89 in10.0 miWest (270°)9.2 mphClear
10:15 PM32.0 °F23.0 °F69 %29.89 in10.0 miWest (260°)5.8 mphClear
10:37 PM32.0 °F23.0 °F69 %29.88 in10.0 miWest (260°)6.9 mphClear
10:58 PM33.8 °F24.8 °F70 %29.87 in10.0 miWSW (250°)6.9 mphClear
11:17 PM33.8 °F24.8 °F70 %29.87 in10.0 miWSW (240°)6.9 mphClear
11:57 PM33.8 °F24.8 °F70 %29.85 in10.0 miWSW (240°)5.8 mphClear
Hourly data recorded from KBCB, located miles away from Blacksburg, Virginia







STORIES FROM OUR PARTNERS